Probability
0 0 0 0 0 0 0 0 0 0 0 0 0 0 0 0 0 0 0 3 6 3 10 16 29 26 29 29 26 29 26 26 26 23 23 26 26 26 26 26 23 19 19 16 16 19 16 19 19
0 0 0 0 0 0 0 0 0 0 0 0 0 0 0 0 0 0 0 3 3 3 13 16 26 23 23 23 19 16 16 23 19 19 19 26 23 23 13 16 13 16 19 16 19 16 16 19 19
0 0 0 0 0 0 0 0 0 0 0 0 0 0 0 0 0 0 0 0 3 6 13 16 23 23 23 16 19 13 16 19 19 19 16 16 16 16 16 13 13 16 16 16 23 19 19 19 19
0 0 0 0 0 0 0 0 0 0 0 0 0 0 0 0 0 0 0 0 6 10 10 10 23 23 23 23 13 10 10 13 16 16 19 13 13 13 13 13 13 13 13 13 16 16 16 16 23
0 0 0 0 0 0 0 0 0 0 0 0 0 0 0 0 0 0 0 3 6 10 10 10 19 19 19 19 13 10 13 13 16 10 13 6 13 13 13 13 13 13 13 13 13 16 16 10 16
0 0 0 0 0 0 0 0 0 0 0 0 0 0 0 0 0 0 0 3 3 6 10 13 19 16 16 19 16 13 13 10 13 13 13 6 10 13 13 13 13 6 6 10 10 6 6 6 10
0 0 0 0 0 0 0 0 0 0 0 0 0 0 0 3 3 0 0 0 6 6 6 10 10 6 10 6 6 6 10 10 10 13 16 16 13 6 10 13 13 10 6 10 10 10 10 10 13
0 0 0 0 0 0 0 0 0 0 0 0 0 0 0 0 3 0 0 0 3 6 6 6 6 6 6 6 3 3 6 6 13 13 10 10 6 6 6 6 10 10 6 10 13 10 6 6 13
0 0 0 0 0 0 0 0 0 0 0 0 0 0 0 0 0 0 0 0 0 3 6 6 6 6 6 3 3 3 3 3 6 6 6 6 3 3 3 0 3 3 6 6 13 6 3 0 3
0 0 0 0 0 0 0 0 0 0 0 0 0 0 0 0 0 0 0 0 0 0 0 3 3 3 3 3 3 3 3 3 3 3 3 3 3 0 0 0 0 0 0 6 10 3 0 0 0
0 0 0 0 0 0 0 0 0 0 0 0 0 0 0 0 0 0 0 0 0 0 0 0 3 3 3 3 3 3 3 3 3 3 3 0 0 0 0 0 0 0 0 0 0 3 0 0 0
0 0 0 0 0 0 0 0 0 0 0 0 0 0 0 0 0 0 0 0 0 0 0 0 0 3 3 3 3 3 3 3 0 3 0 0 3 3 0 0 0 0 0 0 0 3 0 0 0
0 0 0 0 0 0 0 0 0 0 0 0 0 0 0 0 0 0 0 0 0 0 0 0 0 3 3 3 3 0 3 0 0 0 0 0 0 0 0 0 0 0 0 0 0 0 0 0 0
0 0 0 0 0 0 0 0 0 0 0 0 0 0 0 0 0 0 0 0 0 0 0 0 3 0 0 0 0 0 0 0 0 0 0 0 0 0 0 0 0 0 0 0 0 0 0 0 0
0 0 0 0 0 0 0 0 0 0 0 0 0 0 0 0 0 0 0 0 0 0 0 0 0 0 0 0 0 0 0 0 0 0 0 0 0 0 0 0 0 0 0 0 0 0 0 0 0
0 0 0 0 0 0 0 0 0 0 0 0 0 0 0 0 0 0 0 0 0 0 0 0 0 0 0 0 0 0 0 0 0 0 0 0 0 0 0 0 0 0 0 0 0 0 0 0 0
0 0 0 0 0 0 0 0 0 0 0 0 0 0 0 0 0 0 0 0 0 0 0 0 0 0 0 0 0 0 0 0 0 0 0 0 0 0 0 0 0 0 0 0 0 0 0 0 0
0 0 0 0 0 0 0 0 0 0 0 0 0 0 0 0 0 0 0 0 0 0 0 0 0 0 0 0 0 0 0 0 0 0 0 0 0 0 0 0 0 0 0 0 0 0 0 0 0
0 0 0 0 0 0 0 0 0 0 0 0 0 0 0 0 0 0 0 0 0 0 0 0 0 0 0 0 0 0 0 0 0 0 0 0 0 0 0 0 0 0 0 0 0 0 0 0 0
0 0 0 0 0 0 0 0 0 0 0 0 0 0 0 0 0 0 0 0 0 0 0 0 0 0 0 0 0 0 0 0 0 0 0 0 0 0 0 0 0 0 0 0 0 0 0 0 0
0 0 0 0 0 0 0 0 0 0 0 0 0 0 0 0 0 0 0 0 0 0 0 0 0 0 0 0 0 0 0 0 0 0 0 0 0 0 0 0 0 0 0 0 0 0 0 0 0
0 0 0 0 0 0 0 0 0 0 0 0 0 0 0 0 0 0 0 0 0 0 0 0 0 0 0 0 0 0 0 0 0 0 0 0 0 0 0 0 0 0 0 0 0 0 0 0 0
0 0 0 0 0 0 0 0 0 0 0 0 0 0 0 0 0 0 0 0 0 0 0 0 0 0 0 0 0 0 0 0 0 0 0 0 0 0 0 0 0 0 0 0 0 0 0 0 0
0 0 0 0 0 0 0 0 0 0 0 0 0 0 0 0 0 0 0 0 0 0 0 0 0 0 0 0 0 0 0 0 0 0 0 0 0 0 0 0 0 0 0 0 0 0 0 0 0
0 0 0 0 0 0 0 0 0 0 0 0 0 0 0 0 0 0 0 0 0 0 0 0 0 0 0 0 0 0 0 0 0 0 0 0 0 0 0 0 0 0 0 0 0 0 0 0 0
0 0 0 0 0 0 0 0 0 0 0 0 0 0 0 0 0 0 0 0 0 0 0 0 0 0 0 0 0 0 0 0 0 0 0 0 0 0 0 0 0 0 0 0 0 0 0 0 0
0 0 0 0 0 0 0 0 0 0 0 0 0 0 0 0 0 0 0 0 0 0 0 0 0 0 0 0 0 0 0 0 0 0 0 0 0 0 0 0 0 0 0 0 0 0 0 0 0
0 0 0 0 0 0 0 0 0 0 0 0 0 0 0 0 0 0 0 0 0 0 0 0 0 0 0 0 0 0 0 0 0 0 0 0 0 0 0 0 0 0 0 0 0 0 0 0 0
0 0 0 0 0 0 0 0 0 0 0 0 0 0 0 0 0 0 0 0 0 0 0 0 0 0 0 0 0 0 0 0 0 0 0 0 0 0 0 0 0 0 0 0 0 0 0 0 0
0 0 0 0 0 0 0 0 0 0 0 0 0 0 0 0 0 0 0 0 0 0 0 0 0 0 0 0 0 0 0 0 0 0 0 0 0 0 0 0 0 0 0 0 0 0 0 0 0
Height
5840 5840 5840 5841 5842 5842 5841 5841 5841 5841 5840 5841 5840 5840 5841 5841 5841 5843 5841 5840 5840 5840 5840 5839 5839 5839 5839 5838 5838 5837 5837 5837 5836 5836 5835 5835 5835 5835 5835 5835 5835 5835 5835 5835 5836 5836 5836 5836 5837
5837 5838 5839 5839 5839 5839 5839 5839 5838 5838 5838 5838 5838 5838 5838 5838 5838 5838 5838 5837 5837 5837 5837 5837 5837 5837 5836 5836 5835 5835 5834 5834 5833 5833 5832 5832 5832 5832 5832 5832 5833 5833 5833 5833 5833 5834 5834 5834 5835
5835 5835 5836 5836 5836 5837 5837 5836 5836 5836 5836 5836 5836 5835 5836 5835 5835 5835 5835 5835 5835 5835 5835 5835 5834 5834 5834 5833 5832 5832 5831 5831 5830 5830 5829 5829 5829 5829 5829 5830 5830 5830 5830 5830 5831 5831 5832 5832 5832
5832 5833 5833 5834 5833 5834 5834 5834 5833 5833 5833 5833 5833 5833 5833 5833 5833 5833 5832 5832 5832 5832 5832 5832 5832 5831 5831 5830 5829 5829 5828 5827 5827 5826 5826 5826 5826 5826 5826 5827 5827 5827 5827 5827 5827 5828 5829 5829 5829
5829 5830 5830 5830 5830 5830 5830 5830 5830 5830 5830 5830 5830 5830 5830 5830 5829 5829 5829 5829 5829 5829 5829 5829 5828 5828 5827 5826 5826 5825 5825 5824 5823 5823 5822 5822 5822 5822 5823 5823 5823 5824 5824 5824 5824 5825 5825 5826 5826
5826 5826 5827 5826 5827 5827 5827 5827 5827 5827 5827 5826 5826 5826 5826 5826 5826 5826 5826 5826 5825 5825 5825 5825 5825 5824 5824 5823 5822 5822 5821 5820 5820 5819 5819 5819 5819 5819 5819 5819 5819 5820 5820 5820 5820 5821 5821 5822 5822
5823 5822 5822 5823 5823 5823 5823 5823 5823 5823 5823 5823 5823 5822 5822 5822 5822 5822 5822 5822 5822 5822 5821 5821 5821 5820 5820 5819 5819 5818 5817 5816 5816 5815 5815 5815 5814 5814 5815 5815 5815 5815 5816 5816 5816 5817 5817 5818 5818
5818 5819 5818 5818 5819 5819 5819 5819 5819 5819 5819 5819 5819 5818 5818 5818 5818 5818 5818 5818 5818 5817 5817 5817 5816 5816 5816 5815 5814 5814 5813 5812 5812 5811 5811 5810 5810 5810 5810 5810 5811 5811 5811 5811 5812 5812 5812 5813 5813
5813 5815 5814 5814 5815 5815 5814 5814 5814 5814 5814 5814 5814 5814 5814 5814 5813 5813 5813 5813 5813 5813 5812 5812 5812 5811 5811 5810 5810 5809 5808 5808 5807 5807 5806 5806 5805 5805 5805 5805 5806 5806 5806 5806 5807 5807 5807 5808 5808
5809 5810 5810 5810 5810 5810 5810 5810 5810 5810 5809 5809 5809 5809 5809 5809 5809 5809 5808 5808 5808 5808 5807 5807 5807 5806 5806 5805 5805 5804 5803 5803 5802 5801 5801 5801 5800 5800 5800 5800 5800 5800 5800 5800 5800 5801 5801 5801 5802
5804 5805 5805 5805 5805 5805 5805 5805 5805 5805 5805 5804 5804 5804 5803 5803 5803 5803 5803 5802 5802 5802 5802 5801 5801 5801 5800 5799 5799 5798 5797 5797 5796 5796 5795 5795 5794 5794 5794 5794 5794 5794 5794 5794 5794 5794 5794 5794 5795
5800 5800 5800 5800 5800 5800 5800 5799 5799 5799 5800 5799 5799 5798 5798 5798 5797 5797 5797 5796 5796 5795 5795 5795 5795 5794 5794 5793 5792 5792 5791 5790 5790 5789 5788 5788 5788 5788 5787 5787 5787 5787 5787 5786 5786 5787 5787 5787 5787
5794 5795 5794 5794 5794 5794 5794 5794 5794 5794 5793 5793 5793 5793 5792 5792 5791 5791 5790 5790 5789 5789 5789 5788 5788 5787 5786 5786 5785 5784 5784 5783 5782 5782 5781 5781 5780 5780 5780 5780 5779 5779 5779 5778 5778 5778 5778 5779 5779
5789 5789 5789 5789 5789 5788 5788 5788 5788 5788 5787 5787 5786 5786 5785 5785 5784 5784 5784 5783 5782 5782 5781 5781 5780 5780 5779 5778 5777 5777 5776 5775 5774 5774 5773 5772 5772 5772 5771 5771 5771 5771 5770 5770 5770 5770 5769 5769 5769
5783 5783 5783 5783 5782 5782 5782 5782 5782 5781 5780 5780 5779 5779 5778 5778 5777 5777 5776 5776 5775 5774 5774 5773 5772 5771 5771 5770 5769 5768 5767 5766 5766 5765 5764 5763 5763 5762 5762 5762 5761 5761 5761 5760 5760 5760 5760 5760 5760
5777 5777 5777 5777 5776 5775 5776 5776 5775 5774 5773 5773 5772 5771 5771 5770 5770 5769 5769 5768 5767 5766 5765 5765 5763 5763 5762 5761 5760 5759 5758 5757 5756 5755 5754 5753 5753 5752 5752 5751 5751 5751 5750 5750 5749 5749 5749 5749 5749
5771 5771 5770 5770 5769 5768 5768 5768 5768 5767 5766 5765 5764 5763 5763 5762 5762 5761 5760 5759 5758 5757 5756 5755 5754 5753 5752 5751 5750 5749 5748 5747 5745 5744 5743 5742 5742 5741 5741 5740 5740 5739 5739 5738 5738 5737 5737 5737 5737
5765 5764 5763 5763 5762 5761 5761 5760 5760 5759 5758 5757 5756 5755 5754 5754 5753 5752 5751 5750 5749 5748 5746 5745 5744 5743 5741 5740 5739 5738 5737 5735 5734 5733 5732 5731 5730 5729 5728 5728 5727 5727 5726 5726 5725 5725 5724 5724 5724
5757 5756 5755 5755 5754 5753 5752 5752 5751 5750 5749 5749 5748 5747 5746 5745 5743 5742 5741 5740 5739 5738 5736 5735 5733 5732 5730 5729 5727 5726 5725 5723 5722 5720 5719 5718 5717 5716 5715 5715 5714 5714 5713 5713 5712 5712 5711 5711 5711
5749 5748 5747 5747 5745 5744 5743 5743 5742 5741 5740 5739 5738 5737 5736 5735 5734 5732 5731 5730 5728 5727 5725 5724 5722 5720 5719 5717 5715 5714 5712 5711 5709 5707 5706 5704 5703 5702 5702 5701 5700 5700 5699 5699 5698 5698 5697 5697 5697
5741 5740 5739 5738 5736 5734 5733 5733 5733 5732 5730 5729 5728 5727 5725 5725 5724 5722 5721 5719 5717 5716 5714 5712 5710 5708 5706 5705 5703 5701 5699 5697 5696 5694 5692 5690 5689 5688 5687 5686 5686 5685 5685 5684 5684 5683 5683 5683 5682
5732 5732 5730 5728 5726 5725 5725 5722 5723 5722 5720 5719 5718 5716 5715 5714 5713 5711 5709 5707 5706 5704 5702 5700 5698 5696 5694 5692 5690 5688 5686 5684 5682 5680 5678 5676 5675 5673 5672 5671 5670 5670 5669 5669 5669 5668 5667 5667 5668
5723 5722 5720 5718 5716 5715 5715 5712 5712 5712 5710 5709 5707 5706 5704 5703 5702 5700 5698 5696 5694 5692 5690 5688 5685 5683 5681 5679 5677 5674 5672 5670 5668 5666 5664 5662 5660 5658 5657 5655 5654 5654 5653 5653 5652 5652 5651 5651 5652
5713 5712 5710 5707 5705 5704 5705 5701 5701 5701 5700 5698 5696 5695 5693 5692 5690 5688 5686 5684 5682 5680 5677 5675 5673 5671 5668 5666 5663 5661 5659 5657 5655 5652 5650 5648 5646 5644 5642 5640 5639 5638 5637 5636 5635 5635 5635 5635 5636
5703 5702 5700 5697 5695 5694 5694 5691 5691 5690 5688 5687 5685 5683 5681 5680 5678 5676 5674 5672 5670 5668 5665 5663 5661 5658 5655 5653 5650 5648 5646 5643 5641 5639 5637 5635 5632 5630 5628 5626 5624 5623 5621 5620 5619 5618 5618 5619 5620
5694 5693 5691 5688 5685 5684 5683 5680 5682 5680 5677 5675 5674 5672 5670 5668 5666 5664 5662 5660 5657 5655 5653 5650 5648 5645 5643 5640 5637 5635 5632 5630 5628 5626 5624 5621 5619 5616 5614 5612 5610 5608 5606 5604 5602 5601 5602 5602 5604
5683 5682 5681 5678 5675 5673 5671 5671 5671 5669 5667 5664 5662 5660 5658 5656 5654 5652 5649 5647 5645 5643 5640 5638 5635 5633 5630 5627 5625 5622 5620 5617 5615 5613 5610 5608 5605 5603 5600 5598 5595 5593 5590 5588 5587 5586 5585 5586 5587
5674 5672 5670 5667 5664 5662 5662 5661 5661 5658 5656 5653 5651 5648 5646 5644 5642 5639 5637 5635 5632 5630 5628 5625 5623 5620 5617 5615 5612 5610 5607 5604 5602 5599 5597 5594 5591 5589 5586 5583 5581 5578 5575 5573 5572 5571 5570 5571 5572
5664 5662 5659 5657 5654 5653 5651 5653 5651 5648 5645 5642 5640 5637 5634 5632 5630 5627 5625 5623 5620 5618 5615 5613 5610 5608 5605 5602 5600 5597 5594 5591 5589 5586 5583 5580 5578 5575 5572 5569 5566 5564 5561 5559 5557 5556 5556 5556 5556
5653 5651 5650 5648 5645 5643 5641 5644 5640 5637 5633 5631 5628 5626 5623 5621 5618 5615 5613 5611 5608 5606 5603 5600 5598 5595 5593 5590 5587 5584 5581 5578 5575 5572 5570 5567 5564 5561 5558 5555 5552 5549 5546 5544 5543 5542 5541 5541 5541
Wind_Speed
10 10 10 11 11 11 10 10 10 10 10 10 10 11 11 11 11 11 10 10 10 11 11 10 10 10 10 10 11 11 11 11 11 11 11 11 11 11 11 11 11 11 10 10 11 11 10 10 10
11 11 11 11 11 10 10 10 10 11 10 11 11 11 11 11 11 11 11 11 11 11 11 11 11 11 11 11 11 12 12 12 13 12 13 13 13 13 13 13 13 12 12 11 11 12 11 11 11
12 12 12 12 11 11 10 10 11 11 11 11 11 11 11 11 11 12 12 12 12 12 12 12 12 12 12 13 13 13 13 13 14 14 14 14 14 14 14 14 14 14 14 13 13 13 13 13 13
14 13 13 13 12 12 12 12 12 12 12 12 12 12 12 13 13 13 13 13 13 13 13 14 14 14 14 14 14 15 14 14 15 15 15 15 16 16 16 16 16 15 15 15 15 15 15 15 15
15 15 15 14 14 14 14 14 14 14 14 14 14 14 14 15 15 15 15 15 15 15 15 15 15 15 16 16 16 15 15 15 15 16 16 17 17 17 17 17 17 17 17 17 17 17 16 16 17
17 16 16 16 16 15 15 15 15 15 15 15 16 16 16 17 17 17 17 16 16 16 16 16 16 16 17 17 17 16 16 16 16 16 16 17 18 18 18 18 18 18 19 19 19 18 18 18 18
17 18 17 17 17 16 16 16 16 16 16 17 17 18 18 18 18 18 18 18 18 18 18 18 18 18 18 18 18 18 18 18 18 18 18 18 18 19 19 19 20 20 20 20 20 20 20 20 20
18 18 18 18 18 17 17 17 17 17 18 18 18 19 19 19 19 20 20 19 19 19 19 20 20 20 20 20 20 20 20 20 19 19 19 20 20 20 21 21 21 22 22 22 22 22 22 22 23
19 19 19 18 19 19 19 19 19 19 20 20 20 21 20 20 20 21 21 21 21 21 21 21 22 22 22 22 22 22 22 22 21 21 21 21 22 22 22 22 23 24 24 24 25 25 25 25 25
20 20 19 19 20 20 20 21 21 21 22 22 22 22 22 22 22 22 22 23 24 24 24 24 24 24 24 24 24 24 24 24 24 23 23 24 24 24 24 24 25 25 26 26 27 27 28 28 28
20 21 21 21 21 22 22 23 23 23 23 23 24 24 24 23 23 24 24 25 26 26 26 26 26 26 26 26 26 26 26 26 26 26 25 25 26 26 26 26 27 27 28 28 29 29 29 30 31
21 21 22 22 23 23 24 24 24 24 24 24 25 25 25 25 25 25 25 26 27 28 28 28 28 28 28 28 28 28 28 29 29 28 28 28 29 29 29 29 29 30 30 31 31 31 32 32 33
22 22 22 22 23 24 25 25 25 25 25 25 26 26 26 26 27 27 27 27 27 28 29 30 30 30 30 30 31 31 31 31 31 31 32 32 32 32 32 32 32 32 32 32 33 33 34 34 35
23 23 24 24 24 25 25 26 26 26 26 27 27 27 28 28 28 28 28 28 28 29 30 31 32 32 33 33 33 33 34 34 34 34 35 35 35 35 35 35 35 35 36 36 36 35 35 36 37
23 24 24 25 26 26 27 26 26 26 27 27 28 28 29 29 29 29 30 30 30 31 32 33 33 34 34 35 35 35 36 36 37 37 37 37 38 38 38 38 38 38 38 39 39 38 38 38 38
25 25 25 26 27 27 28 27 27 27 28 28 28 29 30 30 31 31 32 32 33 33 34 35 36 36 37 37 36 37 38 38 39 40 40 40 40 41 41 41 41 41 41 41 42 41 41 41 41
26 26 26 27 28 28 29 29 29 29 29 29 30 30 31 31 32 33 33 34 35 36 36 38 38 39 39 39 39 39 40 41 42 42 43 43 43 43 43 44 44 44 44 44 44 43 43 43 43
26 27 28 29 29 30 30 30 30 31 31 31 32 32 32 33 33 34 35 36 36 37 38 39 40 41 41 42 42 42 43 43 44 44 45 45 45 45 46 46 46 46 46 46 46 46 45 45 45
28 29 30 30 31 32 32 32 32 32 32 32 33 34 34 35 35 36 37 37 38 39 40 40 41 42 42 43 44 44 45 45 46 46 47 47 47 47 48 48 49 49 49 48 48 48 48 48 48
29 30 31 32 32 33 34 34 34 34 34 34 34 35 36 36 37 37 38 39 40 40 41 42 42 43 44 45 46 46 46 47 47 48 48 48 49 49 50 50 50 50 50 50 50 50 50 51 51
31 31 32 32 33 33 34 35 34 34 35 35 35 36 36 37 38 39 40 40 41 42 42 43 43 44 45 46 47 47 46 47 48 49 49 50 50 50 50 51 51 51 51 51 51 51 52 52 52
32 32 33 34 34 35 35 36 35 35 35 35 36 37 37 38 39 40 41 41 42 43 43 44 44 45 45 46 47 48 48 47 47 48 48 49 50 50 51 52 52 53 53 53 53 52 52 53 53
33 34 35 35 36 37 36 38 36 35 35 36 37 38 39 40 40 41 42 42 43 43 43 44 44 45 45 46 47 48 48 48 47 47 47 48 49 50 51 52 53 53 54 55 55 54 54 54 54
34 34 35 36 37 38 36 37 36 35 35 36 37 38 39 40 41 42 42 43 43 43 44 44 45 45 46 46 47 47 48 48 47 47 47 48 49 50 50 51 52 53 54 56 57 57 55 54 53
34 34 35 37 38 38 36 37 36 35 35 36 37 38 39 40 41 42 42 43 43 44 44 44 45 45 46 46 47 47 47 47 47 47 47 48 48 49 50 51 52 53 54 55 56 57 57 55 54
34 34 35 37 38 38 36 37 35 35 36 37 38 39 40 41 41 42 42 43 43 43 44 44 44 45 45 46 46 46 46 47 47 48 48 48 48 49 50 51 52 53 53 54 55 55 55 56 55
34 35 35 38 39 39 38 37 36 35 36 37 38 39 40 40 41 42 42 42 43 43 43 43 44 45 45 45 45 45 46 47 48 49 49 48 49 49 50 51 52 52 53 53 54 54 54 55 56
35 35 36 37 39 40 40 38 36 35 36 37 38 38 39 39 40 41 41 41 42 43 43 44 44 44 44 45 45 46 47 48 48 49 50 50 49 49 49 50 52 52 53 53 53 53 53 54 55
35 35 36 38 38 39 40 39 37 36 37 37 38 39 39 39 39 40 40 41 41 42 43 43 44 44 44 45 45 46 47 48 48 49 49 50 50 50 50 50 51 51 52 52 52 52 52 53 54
35 35 36 37 38 39 40 39 37 37 38 38 39 39 39 39 39 40 40 41 42 42 43 43 44 44 44 45 45 46 47 47 48 48 49 49 49 50 50 50 50 51 51 51 51 51 51 51 52
Wind_Direction
253 253 252 251 254 256 257 257 259 261 262 260 260 260 257 253 252 253 252 254 258 260 261 262 265 269 271 274 276 274 272 271 268 267 268 268 266 264 264 263 260 258 257 256 256 255 256 258 257
251 251 250 250 252 254 254 256 258 259 258 257 258 260 257 254 252 251 251 255 259 262 264 264 265 267 270 274 276 276 274 272 268 266 267 267 266 266 265 265 262 261 259 257 256 254 255 257 257
249 249 248 248 250 253 253 254 254 253 252 254 256 256 255 254 254 254 254 256 258 261 265 267 268 269 271 273 276 276 275 273 269 266 267 266 266 265 264 264 263 262 260 258 255 254 255 256 257
249 249 249 250 252 252 251 251 251 253 253 254 255 255 254 255 257 257 256 257 260 261 264 267 269 271 271 273 276 277 277 274 272 269 267 266 266 266 265 264 263 262 261 259 258 255 256 257 256
249 249 250 250 252 252 252 253 254 255 255 255 257 257 257 259 259 258 259 259 261 262 264 266 269 270 273 275 276 277 277 275 273 272 269 266 265 266 266 264 262 262 262 261 260 258 257 258 257
251 249 250 250 251 252 253 254 255 256 256 257 259 260 260 261 261 260 260 261 263 264 266 267 268 269 271 274 276 277 276 276 275 272 270 268 267 266 266 264 262 261 262 262 261 260 259 258 258
252 248 247 248 249 251 252 254 255 256 257 258 260 260 261 261 261 261 260 261 263 266 267 268 268 269 270 272 274 276 276 275 275 273 271 270 269 267 266 267 265 263 262 262 263 261 259 258 257
253 252 250 249 250 251 252 253 255 257 259 260 260 260 261 262 262 262 261 260 261 265 267 268 269 269 269 271 273 275 275 274 274 273 272 271 270 269 268 267 267 266 263 263 263 262 260 259 259
255 253 252 252 252 252 254 255 256 258 261 262 262 262 262 262 263 263 262 262 263 264 266 267 268 269 269 271 272 274 275 274 273 273 273 273 272 271 270 268 268 267 265 264 264 263 262 261 260
256 254 253 253 255 255 256 258 259 262 264 264 263 263 263 263 263 264 264 264 264 264 266 267 268 269 269 270 271 273 274 273 272 272 272 272 272 271 271 270 269 268 267 266 266 265 264 262 261
258 258 256 255 255 257 259 260 261 264 266 265 264 264 264 264 264 265 266 265 265 265 265 266 268 269 270 270 271 272 273 273 272 272 272 271 272 271 271 271 270 269 269 267 266 266 266 263 262
260 260 259 258 258 259 261 263 264 265 266 265 265 265 265 265 265 266 267 266 266 265 266 267 269 270 271 271 272 272 273 273 273 273 273 272 271 271 272 271 271 270 269 268 267 267 266 265 264
260 260 259 259 260 262 263 265 266 266 266 266 266 266 266 265 266 266 267 268 267 267 268 268 268 269 271 272 272 273 273 273 274 273 273 273 272 272 272 272 271 271 270 269 268 268 268 266 266
261 261 260 260 261 262 264 265 267 267 267 266 266 266 266 266 266 267 267 268 269 269 269 269 270 270 272 272 273 273 273 274 274 274 274 273 272 272 272 271 271 270 269 268 267 267 267 266 265
263 263 262 263 264 264 264 266 268 268 267 268 267 266 266 265 266 267 268 269 270 271 271 271 272 271 272 273 273 273 274 273 273 273 273 273 273 272 272 272 271 270 269 268 268 267 266 265 265
265 265 265 265 265 266 266 267 267 267 268 269 268 267 266 266 267 268 269 270 272 272 273 273 273 273 273 273 274 274 273 273 273 273 273 273 273 273 272 271 270 269 269 268 268 267 266 266 266
267 268 268 267 266 266 267 268 268 267 268 269 269 269 268 267 268 269 271 272 274 275 275 274 274 274 274 274 274 274 274 274 274 273 273 273 273 273 272 271 270 270 269 269 268 267 266 266 266
270 269 269 269 269 269 269 269 268 268 268 268 268 269 269 270 270 271 272 273 275 276 277 277 276 276 275 275 276 276 275 275 275 275 274 273 273 273 272 271 270 270 269 269 269 268 266 265 265
270 270 271 271 271 269 269 269 269 269 270 269 269 269 270 271 272 274 274 275 276 277 278 278 277 276 276 277 277 277 276 276 276 276 275 274 273 272 272 272 270 269 269 269 269 269 267 266 264
272 273 273 273 273 271 270 270 270 270 271 271 270 271 271 272 274 275 276 277 277 278 278 279 279 278 278 278 278 277 278 277 277 277 276 275 274 273 272 272 272 270 269 269 269 269 268 267 265
272 274 275 275 274 273 273 271 271 271 272 272 272 272 272 273 274 276 277 277 277 278 279 279 279 279 278 278 278 277 277 278 277 277 276 276 275 275 273 273 272 271 270 269 269 269 269 267 266
273 274 275 275 274 274 274 274 272 272 273 273 273 273 274 275 276 277 278 278 278 278 279 279 279 279 279 279 278 278 278 278 278 277 277 277 276 275 274 273 272 272 270 269 269 269 269 268 266
274 275 275 275 274 274 274 275 273 273 273 274 275 275 275 276 277 277 278 278 278 279 280 280 280 280 280 280 279 279 279 279 279 278 277 277 277 276 275 274 273 272 271 270 268 268 267 267 266
275 275 276 276 277 276 277 276 275 275 276 276 276 276 276 277 277 278 278 278 278 279 279 280 280 280 280 281 281 280 280 279 280 279 279 279 278 278 277 275 274 273 272 271 270 268 267 266 265
275 276 278 278 279 279 280 278 278 278 278 277 277 277 278 278 278 278 278 278 279 279 279 280 280 280 281 281 281 281 280 280 280 280 281 281 280 280 279 278 276 275 273 272 271 269 267 265 264
275 276 277 279 280 281 280 279 280 281 280 279 279 279 279 279 278 278 279 279 279 279 280 280 280 280 281 281 281 280 279 280 280 281 281 282 282 281 280 279 278 277 275 273 273 270 267 264 263
276 275 276 278 279 280 280 280 281 282 282 282 281 280 279 279 279 278 278 279 279 280 280 281 281 282 282 281 281 281 280 280 280 281 281 282 282 282 281 280 279 278 277 274 273 271 268 265 263
276 277 277 277 279 280 281 283 284 285 284 284 283 282 280 280 280 279 279 279 279 280 281 281 282 282 282 281 281 281 280 280 281 281 281 282 281 282 282 282 281 280 278 275 274 271 269 266 264
277 277 277 277 278 279 282 284 286 285 284 284 284 283 282 282 282 281 280 280 280 281 281 282 282 282 282 282 282 282 281 281 281 282 282 282 282 282 283 282 282 280 279 276 274 272 270 267 265
276 277 277 277 278 279 280 283 286 286 285 285 284 283 283 283 283 283 282 282 282 282 282 282 282 282 282 282 282 282 282 282 282 283 283 283 283 283 283 283 283 281 279 277 275 272 270 268 267